User: anonymous   Login
Location: *
(60.1759°S, 155.0663°W)
Time: 02:49:40
(UTC+00:00)
Language:

Cosmos 1825 - Orbit

View from above orbital plane
View from above orbital plane
View from above satellite
View from above satellite

Ground track
Ground track

The orbit data is extracted from the following two-line orbital elements,

1 17566U 87024A   19325.05759672  .00000677  00000-0  30087-4 0  9999
2 17566  82.5025 130.0566 0004237  26.6361 333.5091 15.19834015788509
Epoch (UTC): 21 November 2019 01:22:56
Eccentricity: 0.0004237
inclination: 82.5025°
perigee height: 503 km
apogee height: 509 km
right ascension of ascending node: 130.0566°
argument of perigee: 26.6361°
revolutions per day: 15.19834015
mean anomaly at epoch: 333.5091°
orbit number at epoch: 78850

The dashed part of the orbit path shows where the satellite is in the earth's shadow,  

DLR